Location: Street
(51.1247°N, 2.7429°W)
Time: 10:00:37
(UTC+01:00)

UWE-3 - Pass Details

Date: 07 April 2023
Orbit: 576 x 669 km, 97.7° (Epoch: 02 June)

Event Time Altitude Azimuth Distance (km) Brightness Sun altitude
Rises 04:23:49 0° 13° (NNE) 2,960 ? -19.2°
Reaches altitude 10° 04:26:03 10° 13° (NNE) 2,030 ? -18.9°
Maximum altitude 04:30:29 84° 285° (WNW) 631 ? -18.4°
Enters shadow 04:32:21 34° 200° (SSW) 1,025 ? -18.2°
